Find Starlink 4629

NORAD ID: 53968 Int'l Des: 2022-125 Owner: SPXS Country: US Constellation: starlink operational
LEOCIRCULAR

リアルタイム位置

3D地球を読み込み中...

Starlink 4629について

説明を読み込み中...

次回通過

Passes for default location (London). Set your location on the main map for personalized predictions.

高度履歴

Loading altitude history...

軌道要素

1 53968U 22125E 26122.87651687 -.00001195 00000-0 -56996-4 0 9991
2 53968 53.2188 340.7837 0001503 91.8623 268.2541 15.08837565197508
Epoch: May 2, 2026 • Age: 7 hours

現在のステータス

高度 539.6 km
速度 7.60 km/s
衛星直下点 13.43°N, 133.57°W
打ち上げ日 Oct 5, 2022
運用期間 3.5 years
タイプ internet

技術仕様

分類 Payload
質量 305.00 kg
乾燥質量 290.00 kg
総質量 305.00 kg
長さ 0.20 m
直径 2.80 m
スパン 9.00 m
形状 Box + pan
製造者 SPXS
バスタイプ Starlink
フェーズステータス In Orbit
所有者/国 SPXS/US

Most Searched